User: anonymous   Login
Location: Caltech
(34.1382°N, 118.1253°W)
Time: 23:40:43
(UTC-08:00)
Language:

SEDSat Delta rocket - Orbit

View from above orbital plane
View from above orbital plane
View from above satellite
View from above satellite

Ground track
Ground track

The orbit data is extracted from the following two-line orbital elements,

1 25510U 98061C   17056.20141622  .00000212  00000-0  25174-4 0  9992
2 25510  31.4351  62.5344 0328353 168.0022 276.8928 14.37157691961191
Epoch (UTC): 25 February 2017 04:50:02
Eccentricity: 0.0328353
inclination: 31.4351°
perigee height: 533 km
apogee height: 1002 km
right ascension of ascending node: 62.5344°
argument of perigee: 168.0022°
revolutions per day: 14.37157691
mean anomaly at epoch: 276.8928°
orbit number at epoch: 96119

The dashed part of the orbit path shows where the satellite is in the earth's shadow,  

DLR